owner,sensor,date,latitude,longitude,vertical_datum,sea_water_temperature,qcFlag 
DISL,ioos:station:DISL:CATA:1,2011-02-01T00:00:00Z,30.3085,-88.1395,0.0,13.33,2 
DISL,ioos:station:DISL:CATA:1,2011-02-01T00:30:00Z,30.3085,-88.1395,0.0,13.28,2 
DISL,ioos:station:DISL:CATA:1,2011-02-01T01:00:00Z,30.3085,-88.1395,0.0,13.23,2 
DISL,ioos:station:DISL:CATA:1,2011-02-01T01:30:00Z,30.3085,-88.1395,0.0,13.2,2 
DISL,ioos:station:DISL:CATA:1,2011-02-01T02:00:00Z,30.3085,-88.1395,0.0,13.22,2 
DISL,ioos:station:DISL:CATA:1,2011-02-01T02:30:00Z,30.3085,-88.1395,0.0,13.22,2 
DISL,ioos:station:DISL:CATA:1,2011-02-01T03:00:00Z,30.3085,-88.1395,0.0,13.25,2 
DISL,ioos:station:DISL:CATA:1,2011-02-01T03:30:00Z,30.3085,-88.1395,0.0,13.3,2 
DISL,ioos:station:DISL:CATA:1,2011-02-01T04:00:00Z,30.3085,-88.1395,0.0,13.4,2 
DISL,ioos:station:DISL:CATA:1,2011-02-01T04:30:00Z,30.3085,-88.1395,0.0,13.5,2 
DISL,ioos:station:DISL:CATA:1,2011-02-01T05:00:00Z,30.3085,-88.1395,0.0,13.58,2 
DISL,ioos:station:DISL:CATA:1,2011-02-01T05:30:00Z,30.3085,-88.1395,0.0,13.48,2 
DISL,ioos:station:DISL:CATA:1,2011-02-01T06:00:00Z,30.3085,-88.1395,0.0,13.5,2 
DISL,ioos:station:DISL:CATA:1,2011-02-01T06:30:00Z,30.3085,-88.1395,0.0,13.49,2 
DISL,ioos:station:DISL:CATA:1,2011-02-01T07:00:00Z,30.3085,-88.1395,0.0,13.73,2 
DISL,ioos:station:DISL:CATA:1,2011-02-01T07:30:00Z,30.3085,-88.1395,0.0,13.68,2 
DISL,ioos:station:DISL:CATA:1,2011-02-01T08:00:00Z,30.3085,-88.1395,0.0,13.68,2 
DISL,ioos:station:DISL:CATA:1,2011-02-01T08:30:00Z,30.3085,-88.1395,0.0,12.95,2 
DISL,ioos:station:DISL:CATA:1,2011-02-01T09:00:00Z,30.3085,-88.1395,0.0,12.97,2 
DISL,ioos:station:DISL:CATA:1,2011-02-01T09:30:00Z,30.3085,-88.1395,0.0,12.9,2 
DISL,ioos:station:DISL:CATA:1,2011-02-01T10:00:00Z,30.3085,-88.1395,0.0,12.94,2 
DISL,ioos:station:DISL:CATA:1,2011-02-01T10:30:00Z,30.3085,-88.1395,0.0,12.95,2 
DISL,ioos:station:DISL:CATA:1,2011-02-01T11:00:00Z,30.3085,-88.1395,0.0,12.98,2 
DISL,ioos:station:DISL:CATA:1,2011-02-01T11:30:00Z,30.3085,-88.1395,0.0,12.99,2 
DISL,ioos:station:DISL:CATA:1,2011-02-01T12:00:00Z,30.3085,-88.1395,0.0,13.0,2 
DISL,ioos:station:DISL:CATA:1,2011-02-01T12:30:00Z,30.3085,-88.1395,0.0,13.02,2 
DISL,ioos:station:DISL:CATA:1,2011-02-01T13:00:00Z,30.3085,-88.1395,0.0,13.03,2 
DISL,ioos:station:DISL:CATA:1,2011-02-01T13:30:00Z,30.3085,-88.1395,0.0,13.06,2 
DISL,ioos:station:DISL:CATA:1,2011-02-01T14:00:00Z,30.3085,-88.1395,0.0,13.06,2 
DISL,ioos:station:DISL:CATA:1,2011-02-01T14:30:00Z,30.3085,-88.1395,0.0,13.06,2 
DISL,ioos:station:DISL:CATA:1,2011-02-01T15:00:00Z,30.3085,-88.1395,0.0,13.07,2 
DISL,ioos:station:DISL:CATA:1,2011-02-01T15:30:00Z,30.3085,-88.1395,0.0,13.12,2 
DISL,ioos:station:DISL:CATA:1,2011-02-01T16:00:00Z,30.3085,-88.1395,0.0,13.15,2 
DISL,ioos:station:DISL:CATA:1,2011-02-01T16:30:00Z,30.3085,-88.1395,0.0,13.15,2 
DISL,ioos:station:DISL:CATA:1,2011-02-01T17:00:00Z,30.3085,-88.1395,0.0,13.17,2 
DISL,ioos:station:DISL:CATA:1,2011-02-01T17:30:00Z,30.3085,-88.1395,0.0,13.22,2 
DISL,ioos:station:DISL:CATA:1,2011-02-01T18:00:00Z,30.3085,-88.1395,0.0,13.32,2 
DISL,ioos:station:DISL:CATA:1,2011-02-01T18:30:00Z,30.3085,-88.1395,0.0,13.54,2 
DISL,ioos:station:DISL:CATA:1,2011-02-01T19:00:00Z,30.3085,-88.1395,0.0,13.72,2 
DISL,ioos:station:DISL:CATA:1,2011-02-01T19:30:00Z,30.3085,-88.1395,0.0,13.86,2 
DISL,ioos:station:DISL:CATA:1,2011-02-01T20:00:00Z,30.3085,-88.1395,0.0,13.95,2 
DISL,ioos:station:DISL:CATA:1,2011-02-01T20:30:00Z,30.3085,-88.1395,0.0,14.0,2 
DISL,ioos:station:DISL:CATA:1,2011-02-01T21:00:00Z,30.3085,-88.1395,0.0,14.07,2 
DISL,ioos:station:DISL:CATA:1,2011-02-01T21:30:00Z,30.3085,-88.1395,0.0,14.09,2 
DISL,ioos:station:DISL:CATA:1,2011-02-01T22:00:00Z,30.3085,-88.1395,0.0,14.18,2 
DISL,ioos:station:DISL:CATA:1,2011-02-01T22:30:00Z,30.3085,-88.1395,0.0,14.17,2 
DISL,ioos:station:DISL:CATA:1,2011-02-01T23:00:00Z,30.3085,-88.1395,0.0,14.13,2 
DISL,ioos:station:DISL:CATA:1,2011-02-01T23:30:00Z,30.3085,-88.1395,0.0,14.08,2 
DISL,ioos:station:DISL:CATA:1,2011-02-02T00:00:00Z,30.3085,-88.1395,0.0,14.11,2 
DISL,ioos:station:DISL:CATA:1,2011-02-02T00:30:00Z,30.3085,-88.1395,0.0,14.13,2 
DISL,ioos:station:DISL:CATA:1,2011-02-02T01:00:00Z,30.3085,-88.1395,0.0,14.04,2 
DISL,ioos:station:DISL:CATA:1,2011-02-02T01:30:00Z,30.3085,-88.1395,0.0,14.0,2 
DISL,ioos:station:DISL:CATA:1,2011-02-02T02:00:00Z,30.3085,-88.1395,0.0,14.01,2 
DISL,ioos:station:DISL:CATA:1,2011-02-02T02:30:00Z,30.3085,-88.1395,0.0,14.01,2 
DISL,ioos:station:DISL:CATA:1,2011-02-02T03:00:00Z,30.3085,-88.1395,0.0,14.01,2 
DISL,ioos:station:DISL:CATA:1,2011-02-02T03:30:00Z,30.3085,-88.1395,0.0,14.03,2 
DISL,ioos:station:DISL:CATA:1,2011-02-02T04:00:00Z,30.3085,-88.1395,0.0,14.05,2 
DISL,ioos:station:DISL:CATA:1,2011-02-02T04:30:00Z,30.3085,-88.1395,0.0,14.27,2 
DISL,ioos:station:DISL:CATA:1,2011-02-02T05:00:00Z,30.3085,-88.1395,0.0,14.11,2 
DISL,ioos:station:DISL:CATA:1,2011-02-02T05:30:00Z,30.3085,-88.1395,0.0,14.09,2 
DISL,ioos:station:DISL:CATA:1,2011-02-02T06:00:00Z,30.3085,-88.1395,0.0,14.02,2 
DISL,ioos:station:DISL:CATA:1,2011-02-02T06:30:00Z,30.3085,-88.1395,0.0,13.98,2 
DISL,ioos:station:DISL:CATA:1,2011-02-02T07:00:00Z,30.3085,-88.1395,0.0,13.95,2 
DISL,ioos:station:DISL:CATA:1,2011-02-02T07:30:00Z,30.3085,-88.1395,0.0,13.92,2 
DISL,ioos:station:DISL:CATA:1,2011-02-02T08:00:00Z,30.3085,-88.1395,0.0,13.75,2 
DISL,ioos:station:DISL:CATA:1,2011-02-02T08:30:00Z,30.3085,-88.1395,0.0,13.71,2 
DISL,ioos:station:DISL:CATA:1,2011-02-02T09:00:00Z,30.3085,-88.1395,0.0,13.76,2 
DISL,ioos:station:DISL:CATA:1,2011-02-02T09:30:00Z,30.3085,-88.1395,0.0,13.77,2 
DISL,ioos:station:DISL:CATA:1,2011-02-02T10:00:00Z,30.3085,-88.1395,0.0,13.67,2 
DISL,ioos:station:DISL:CATA:1,2011-02-02T10:30:00Z,30.3085,-88.1395,0.0,13.55,2 
DISL,ioos:station:DISL:CATA:1,2011-02-02T11:00:00Z,30.3085,-88.1395,0.0,13.45,2 
DISL,ioos:station:DISL:CATA:1,2011-02-02T11:30:00Z,30.3085,-88.1395,0.0,13.38,2 
DISL,ioos:station:DISL:CATA:1,2011-02-02T12:00:00Z,30.3085,-88.1395,0.0,13.27,2 
DISL,ioos:station:DISL:CATA:1,2011-02-02T12:30:00Z,30.3085,-88.1395,0.0,13.18,2 
DISL,ioos:station:DISL:CATA:1,2011-02-02T13:00:00Z,30.3085,-88.1395,0.0,13.11,2 
DISL,ioos:station:DISL:CATA:1,2011-02-02T13:30:00Z,30.3085,-88.1395,0.0,13.02,2 
DISL,ioos:station:DISL:CATA:1,2011-02-02T14:00:00Z,30.3085,-88.1395,0.0,12.91,2 
DISL,ioos:station:DISL:CATA:1,2011-02-02T14:30:00Z,30.3085,-88.1395,0.0,12.85,2 
DISL,ioos:station:DISL:CATA:1,2011-02-02T15:00:00Z,30.3085,-88.1395,0.0,12.78,2 
DISL,ioos:station:DISL:CATA:1,2011-02-02T15:30:00Z,30.3085,-88.1395,0.0,12.75,2 
DISL,ioos:station:DISL:CATA:1,2011-02-02T16:00:00Z,30.3085,-88.1395,0.0,12.72,2 
DISL,ioos:station:DISL:CATA:1,2011-02-02T16:30:00Z,30.3085,-88.1395,0.0,12.67,2 
DISL,ioos:station:DISL:CATA:1,2011-02-02T17:00:00Z,30.3085,-88.1395,0.0,12.59,2 
DISL,ioos:station:DISL:CATA:1,2011-02-02T17:30:00Z,30.3085,-88.1395,0.0,12.51,2 
DISL,ioos:station:DISL:CATA:1,2011-02-02T18:00:00Z,30.3085,-88.1395,0.0,12.45,2 
DISL,ioos:station:DISL:CATA:1,2011-02-02T18:30:00Z,30.3085,-88.1395,0.0,12.44,2 
DISL,ioos:station:DISL:CATA:1,2011-02-02T19:00:00Z,30.3085,-88.1395,0.0,12.16,2 
DISL,ioos:station:DISL:CATA:1,2011-02-02T19:30:00Z,30.3085,-88.1395,0.0,11.89,2 
DISL,ioos:station:DISL:CATA:1,2011-02-02T20:00:00Z,30.3085,-88.1395,0.0,11.29,2 
DISL,ioos:station:DISL:CATA:1,2011-02-02T20:30:00Z,30.3085,-88.1395,0.0,11.22,2 
DISL,ioos:station:DISL:CATA:1,2011-02-02T21:00:00Z,30.3085,-88.1395,0.0,11.2,2 
DISL,ioos:station:DISL:CATA:1,2011-02-02T21:30:00Z,30.3085,-88.1395,0.0,11.16,2 
DISL,ioos:station:DISL:CATA:1,2011-02-02T22:00:00Z,30.3085,-88.1395,0.0,11.22,2 
DISL,ioos:station:DISL:CATA:1,2011-02-02T22:30:00Z,30.3085,-88.1395,0.0,11.37,2 
DISL,ioos:station:DISL:CATA:1,2011-02-02T23:00:00Z,30.3085,-88.1395,0.0,11.4,2 
DISL,ioos:station:DISL:CATA:1,2011-02-02T23:30:00Z,30.3085,-88.1395,0.0,11.36,2 
DISL,ioos:station:DISL:CATA:1,2011-02-03T00:00:00Z,30.3085,-88.1395,0.0,11.15,2 
DISL,ioos:station:DISL:CATA:1,2011-02-03T00:30:00Z,30.3085,-88.1395,0.0,10.35,2 
DISL,ioos:station:DISL:CATA:1,2011-02-03T01:00:00Z,30.3085,-88.1395,0.0,10.8,2 
DISL,ioos:station:DISL:CATA:1,2011-02-03T01:30:00Z,30.3085,-88.1395,0.0,10.67,2 
DISL,ioos:station:DISL:CATA:1,2011-02-03T02:00:00Z,30.3085,-88.1395,0.0,10.96,2 
DISL,ioos:station:DISL:CATA:1,2011-02-03T02:30:00Z,30.3085,-88.1395,0.0,10.61,2 
DISL,ioos:station:DISL:CATA:1,2011-02-03T03:00:00Z,30.3085,-88.1395,0.0,10.96,2 
DISL,ioos:station:DISL:CATA:1,2011-02-03T03:30:00Z,30.3085,-88.1395,0.0,10.69,2 
DISL,ioos:station:DISL:CATA:1,2011-02-03T04:00:00Z,30.3085,-88.1395,0.0,10.72,2 
DISL,ioos:station:DISL:CATA:1,2011-02-03T04:30:00Z,30.3085,-88.1395,0.0,10.77,2 
DISL,ioos:station:DISL:CATA:1,2011-02-03T05:00:00Z,30.3085,-88.1395,0.0,10.58,2 
DISL,ioos:station:DISL:CATA:1,2011-02-03T05:30:00Z,30.3085,-88.1395,0.0,9.99,2 
DISL,ioos:station:DISL:CATA:1,2011-02-03T06:00:00Z,30.3085,-88.1395,0.0,9.35,2 
DISL,ioos:station:DISL:CATA:1,2011-02-03T06:30:00Z,30.3085,-88.1395,0.0,8.7,2 
DISL,ioos:station:DISL:CATA:1,2011-02-03T07:00:00Z,30.3085,-88.1395,0.0,9.75,2 
DISL,ioos:station:DISL:CATA:1,2011-02-03T07:30:00Z,30.3085,-88.1395,0.0,9.68,2 
DISL,ioos:station:DISL:CATA:1,2011-02-03T08:00:00Z,30.3085,-88.1395,0.0,9.92,2 
DISL,ioos:station:DISL:CATA:1,2011-02-03T08:30:00Z,30.3085,-88.1395,0.0,9.49,2 
DISL,ioos:station:DISL:CATA:1,2011-02-03T09:00:00Z,30.3085,-88.1395,0.0,8.78,2 
DISL,ioos:station:DISL:CATA:1,2011-02-03T09:30:00Z,30.3085,-88.1395,0.0,8.94,2 
DISL,ioos:station:DISL:CATA:1,2011-02-03T10:00:00Z,30.3085,-88.1395,0.0,9.01,2 
DISL,ioos:station:DISL:CATA:1,2011-02-03T10:30:00Z,30.3085,-88.1395,0.0,8.75,2 
DISL,ioos:station:DISL:CATA:1,2011-02-03T11:00:00Z,30.3085,-88.1395,0.0,9.25,2 
DISL,ioos:station:DISL:CATA:1,2011-02-03T11:30:00Z,30.3085,-88.1395,0.0,9.68,2 
DISL,ioos:station:DISL:CATA:1,2011-02-03T12:00:00Z,30.3085,-88.1395,0.0,9.6,2 
DISL,ioos:station:DISL:CATA:1,2011-02-03T12:30:00Z,30.3085,-88.1395,0.0,9.51,2 
DISL,ioos:station:DISL:CATA:1,2011-02-03T13:00:00Z,30.3085,-88.1395,0.0,9.3,2 
DISL,ioos:station:DISL:CATA:1,2011-02-03T13:30:00Z,30.3085,-88.1395,0.0,8.88,2 
DISL,ioos:station:DISL:CATA:1,2011-02-03T14:00:00Z,30.3085,-88.1395,0.0,8.27,2 
DISL,ioos:station:DISL:CATA:1,2011-02-03T14:30:00Z,30.3085,-88.1395,0.0,8.4,2 
DISL,ioos:station:DISL:CATA:1,2011-02-03T15:00:00Z,30.3085,-88.1395,0.0,8.34,2 
DISL,ioos:station:DISL:CATA:1,2011-02-03T15:30:00Z,30.3085,-88.1395,0.0,8.67,2 
DISL,ioos:station:DISL:CATA:1,2011-02-03T16:00:00Z,30.3085,-88.1395,0.0,8.47,2 
DISL,ioos:station:DISL:CATA:1,2011-02-03T16:30:00Z,30.3085,-88.1395,0.0,8.08,2 
DISL,ioos:station:DISL:CATA:1,2011-02-03T17:00:00Z,30.3085,-88.1395,0.0,7.31,2 
DISL,ioos:station:DISL:CATA:1,2011-02-03T17:30:00Z,30.3085,-88.1395,0.0,7.17,2 
DISL,ioos:station:DISL:CATA:1,2011-02-03T18:00:00Z,30.3085,-88.1395,0.0,8.07,2 
DISL,ioos:station:DISL:CATA:1,2011-02-03T18:30:00Z,30.3085,-88.1395,0.0,8.31,2 
DISL,ioos:station:DISL:CATA:1,2011-02-03T19:00:00Z,30.3085,-88.1395,0.0,8.6,2 
DISL,ioos:station:DISL:CATA:1,2011-02-03T19:30:00Z,30.3085,-88.1395,0.0,6.99,2 
DISL,ioos:station:DISL:CATA:1,2011-02-03T20:00:00Z,30.3085,-88.1395,0.0,6.9,2 
DISL,ioos:station:DISL:CATA:1,2011-02-03T20:30:00Z,30.3085,-88.1395,0.0,6.57,2 
DISL,ioos:station:DISL:CATA:1,2011-02-03T21:00:00Z,30.3085,-88.1395,0.0,6.27,2 
DISL,ioos:station:DISL:CATA:1,2011-02-03T21:30:00Z,30.3085,-88.1395,0.0,6.53,2 
DISL,ioos:station:DISL:CATA:1,2011-02-03T22:00:00Z,30.3085,-88.1395,0.0,6.6,2 
DISL,ioos:station:DISL:CATA:1,2011-02-03T22:30:00Z,30.3085,-88.1395,0.0,7.42,2 
DISL,ioos:station:DISL:CATA:1,2011-02-03T23:00:00Z,30.3085,-88.1395,0.0,7.21,2 
DISL,ioos:station:DISL:CATA:1,2011-02-03T23:30:00Z,30.3085,-88.1395,0.0,7.15,2 
DISL,ioos:station:DISL:CATA:1,2011-02-04T00:00:00Z,30.3085,-88.1395,0.0,7.22,2 
DISL,ioos:station:DISL:CATA:1,2011-02-04T00:30:00Z,30.3085,-88.1395,0.0,7.22,2 
DISL,ioos:station:DISL:CATA:1,2011-02-04T01:00:00Z,30.3085,-88.1395,0.0,6.99,2 
DISL,ioos:station:DISL:CATA:1,2011-02-04T01:30:00Z,30.3085,-88.1395,0.0,7.17,2 
DISL,ioos:station:DISL:CATA:1,2011-02-04T02:00:00Z,30.3085,-88.1395,0.0,7.55,2 
DISL,ioos:station:DISL:CATA:1,2011-02-04T02:30:00Z,30.3085,-88.1395,0.0,7.15,2 
DISL,ioos:station:DISL:CATA:1,2011-02-04T03:00:00Z,30.3085,-88.1395,0.0,7.25,2 
DISL,ioos:station:DISL:CATA:1,2011-02-04T03:30:00Z,30.3085,-88.1395,0.0,7.27,2 
DISL,ioos:station:DISL:CATA:1,2011-02-04T04:00:00Z,30.3085,-88.1395,0.0,7.97,2 
DISL,ioos:station:DISL:CATA:1,2011-02-04T04:30:00Z,30.3085,-88.1395,0.0,6.73,2 
DISL,ioos:station:DISL:CATA:1,2011-02-04T05:00:00Z,30.3085,-88.1395,0.0,6.73,2 
DISL,ioos:station:DISL:CATA:1,2011-02-04T05:30:00Z,30.3085,-88.1395,0.0,6.14,2 
DISL,ioos:station:DISL:CATA:1,2011-02-04T06:00:00Z,30.3085,-88.1395,0.0,6.03,2 
DISL,ioos:station:DISL:CATA:1,2011-02-04T06:30:00Z,30.3085,-88.1395,0.0,6.01,2 
DISL,ioos:station:DISL:CATA:1,2011-02-04T07:00:00Z,30.3085,-88.1395,0.0,6.08,2 
DISL,ioos:station:DISL:CATA:1,2011-02-04T07:30:00Z,30.3085,-88.1395,0.0,6.21,2 
DISL,ioos:station:DISL:CATA:1,2011-02-04T08:00:00Z,30.3085,-88.1395,0.0,6.16,2 
DISL,ioos:station:DISL:CATA:1,2011-02-04T08:30:00Z,30.3085,-88.1395,0.0,6.19,2 
DISL,ioos:station:DISL:CATA:1,2011-02-04T09:00:00Z,30.3085,-88.1395,0.0,7.22,2 
DISL,ioos:station:DISL:CATA:1,2011-02-04T09:30:00Z,30.3085,-88.1395,0.0,6.53,2 
DISL,ioos:station:DISL:CATA:1,2011-02-04T10:00:00Z,30.3085,-88.1395,0.0,6.27,2 
DISL,ioos:station:DISL:CATA:1,2011-02-04T10:30:00Z,30.3085,-88.1395,0.0,7.79,2 
DISL,ioos:station:DISL:CATA:1,2011-02-04T11:00:00Z,30.3085,-88.1395,0.0,8.2,2 
DISL,ioos:station:DISL:CATA:1,2011-02-04T11:30:00Z,30.3085,-88.1395,0.0,8.26,2 
DISL,ioos:station:DISL:CATA:1,2011-02-04T12:00:00Z,30.3085,-88.1395,0.0,8.37,2 
DISL,ioos:station:DISL:CATA:1,2011-02-04T12:30:00Z,30.3085,-88.1395,0.0,8.44,2 
DISL,ioos:station:DISL:CATA:1,2011-02-04T13:00:00Z,30.3085,-88.1395,0.0,8.5,2 
DISL,ioos:station:DISL:CATA:1,2011-02-04T13:30:00Z,30.3085,-88.1395,0.0,8.54,2 
DISL,ioos:station:DISL:CATA:1,2011-02-04T14:00:00Z,30.3085,-88.1395,0.0,8.57,2 
DISL,ioos:station:DISL:CATA:1,2011-02-04T14:30:00Z,30.3085,-88.1395,0.0,8.6,2 
DISL,ioos:station:DISL:CATA:1,2011-02-04T15:00:00Z,30.3085,-88.1395,0.0,8.62,2 
DISL,ioos:station:DISL:CATA:1,2011-02-04T15:30:00Z,30.3085,-88.1395,0.0,8.61,2 
DISL,ioos:station:DISL:CATA:1,2011-02-04T16:00:00Z,30.3085,-88.1395,0.0,8.61,2 
DISL,ioos:station:DISL:CATA:1,2011-02-04T16:30:00Z,30.3085,-88.1395,0.0,8.63,2 
DISL,ioos:station:DISL:CATA:1,2011-02-04T17:00:00Z,30.3085,-88.1395,0.0,8.61,2 
DISL,ioos:station:DISL:CATA:1,2011-02-04T17:30:00Z,30.3085,-88.1395,0.0,8.52,2 
DISL,ioos:station:DISL:CATA:1,2011-02-04T18:00:00Z,30.3085,-88.1395,0.0,8.55,2 
DISL,ioos:station:DISL:CATA:1,2011-02-04T18:30:00Z,30.3085,-88.1395,0.0,8.16,2 
DISL,ioos:station:DISL:CATA:1,2011-02-04T19:00:00Z,30.3085,-88.1395,0.0,8.49,2 
DISL,ioos:station:DISL:CATA:1,2011-02-04T19:30:00Z,30.3085,-88.1395,0.0,8.54,2 
DISL,ioos:station:DISL:CATA:1,2011-02-04T20:00:00Z,30.3085,-88.1395,0.0,8.52,2 
DISL,ioos:station:DISL:CATA:1,2011-02-04T20:30:00Z,30.3085,-88.1395,0.0,8.47,2 
DISL,ioos:station:DISL:CATA:1,2011-02-04T21:00:00Z,30.3085,-88.1395,0.0,8.47,2 
DISL,ioos:station:DISL:CATA:1,2011-02-04T21:30:00Z,30.3085,-88.1395,0.0,8.44,2 
DISL,ioos:station:DISL:CATA:1,2011-02-04T22:00:00Z,30.3085,-88.1395,0.0,8.42,2 
DISL,ioos:station:DISL:CATA:1,2011-02-04T22:30:00Z,30.3085,-88.1395,0.0,8.4,2 
DISL,ioos:station:DISL:CATA:1,2011-02-04T23:00:00Z,30.3085,-88.1395,0.0,8.38,2 
DISL,ioos:station:DISL:CATA:1,2011-02-04T23:30:00Z,30.3085,-88.1395,0.0,8.34,2 
DISL,ioos:station:DISL:CATA:1,2011-02-05T00:00:00Z,30.3085,-88.1395,0.0,8.35,2 
DISL,ioos:station:DISL:CATA:1,2011-02-05T00:30:00Z,30.3085,-88.1395,0.0,8.33,2 
DISL,ioos:station:DISL:CATA:1,2011-02-05T01:00:00Z,30.3085,-88.1395,0.0,8.28,2 
DISL,ioos:station:DISL:CATA:1,2011-02-05T01:30:00Z,30.3085,-88.1395,0.0,8.33,2 
DISL,ioos:station:DISL:CATA:1,2011-02-05T02:00:00Z,30.3085,-88.1395,0.0,8.34,2 
DISL,ioos:station:DISL:CATA:1,2011-02-05T02:30:00Z,30.3085,-88.1395,0.0,7.98,2 
DISL,ioos:station:DISL:CATA:1,2011-02-05T03:00:00Z,30.3085,-88.1395,0.0,8.0,2 
DISL,ioos:station:DISL:CATA:1,2011-02-05T03:30:00Z,30.3085,-88.1395,0.0,8.15,2 
DISL,ioos:station:DISL:CATA:1,2011-02-05T04:00:00Z,30.3085,-88.1395,0.0,8.18,2 
DISL,ioos:station:DISL:CATA:1,2011-02-05T04:30:00Z,30.3085,-88.1395,0.0,8.15,2 
DISL,ioos:station:DISL:CATA:1,2011-02-05T05:00:00Z,30.3085,-88.1395,0.0,8.13,2 
DISL,ioos:station:DISL:CATA:1,2011-02-05T05:30:00Z,30.3085,-88.1395,0.0,8.17,2 
DISL,ioos:station:DISL:CATA:1,2011-02-05T06:00:00Z,30.3085,-88.1395,0.0,8.2,2 
DISL,ioos:station:DISL:CATA:1,2011-02-05T06:30:00Z,30.3085,-88.1395,0.0,8.16,2 
DISL,ioos:station:DISL:CATA:1,2011-02-05T07:00:00Z,30.3085,-88.1395,0.0,8.17,2 
DISL,ioos:station:DISL:CATA:1,2011-02-05T07:30:00Z,30.3085,-88.1395,0.0,8.19,2 
DISL,ioos:station:DISL:CATA:1,2011-02-05T08:00:00Z,30.3085,-88.1395,0.0,8.15,2 
DISL,ioos:station:DISL:CATA:1,2011-02-05T08:30:00Z,30.3085,-88.1395,0.0,8.07,2 
DISL,ioos:station:DISL:CATA:1,2011-02-05T09:00:00Z,30.3085,-88.1395,0.0,7.91,2 
DISL,ioos:station:DISL:CATA:1,2011-02-05T09:30:00Z,30.3085,-88.1395,0.0,7.77,2 
DISL,ioos:station:DISL:CATA:1,2011-02-05T10:00:00Z,30.3085,-88.1395,0.0,7.67,2 
DISL,ioos:station:DISL:CATA:1,2011-02-05T10:30:00Z,30.3085,-88.1395,0.0,7.64,2 
DISL,ioos:station:DISL:CATA:1,2011-02-05T11:00:00Z,30.3085,-88.1395,0.0,7.65,2 
DISL,ioos:station:DISL:CATA:1,2011-02-05T11:30:00Z,30.3085,-88.1395,0.0,7.64,2 
DISL,ioos:station:DISL:CATA:1,2011-02-05T12:00:00Z,30.3085,-88.1395,0.0,7.65,2 
DISL,ioos:station:DISL:CATA:1,2011-02-05T12:30:00Z,30.3085,-88.1395,0.0,7.75,2 
DISL,ioos:station:DISL:CATA:1,2011-02-05T13:00:00Z,30.3085,-88.1395,0.0,7.95,2 
DISL,ioos:station:DISL:CATA:1,2011-02-05T13:30:00Z,30.3085,-88.1395,0.0,8.38,2 
DISL,ioos:station:DISL:CATA:1,2011-02-05T14:00:00Z,30.3085,-88.1395,0.0,8.53,2 
DISL,ioos:station:DISL:CATA:1,2011-02-05T14:30:00Z,30.3085,-88.1395,0.0,8.65,2 
DISL,ioos:station:DISL:CATA:1,2011-02-05T15:00:00Z,30.3085,-88.1395,0.0,8.84,2 
DISL,ioos:station:DISL:CATA:1,2011-02-05T15:30:00Z,30.3085,-88.1395,0.0,8.94,2 
DISL,ioos:station:DISL:CATA:1,2011-02-05T16:00:00Z,30.3085,-88.1395,0.0,8.93,2 
DISL,ioos:station:DISL:CATA:1,2011-02-05T16:30:00Z,30.3085,-88.1395,0.0,9.03,2 
DISL,ioos:station:DISL:CATA:1,2011-02-05T17:00:00Z,30.3085,-88.1395,0.0,8.82,2 
DISL,ioos:station:DISL:CATA:1,2011-02-05T17:30:00Z,30.3085,-88.1395,0.0,8.87,2 
DISL,ioos:station:DISL:CATA:1,2011-02-05T18:00:00Z,30.3085,-88.1395,0.0,8.85,2 
DISL,ioos:station:DISL:CATA:1,2011-02-05T18:30:00Z,30.3085,-88.1395,0.0,8.74,2 
DISL,ioos:station:DISL:CATA:1,2011-02-05T19:00:00Z,30.3085,-88.1395,0.0,8.76,2 
DISL,ioos:station:DISL:CATA:1,2011-02-05T19:30:00Z,30.3085,-88.1395,0.0,8.78,2 
DISL,ioos:station:DISL:CATA:1,2011-02-05T20:00:00Z,30.3085,-88.1395,0.0,8.8,2 
DISL,ioos:station:DISL:CATA:1,2011-02-05T20:30:00Z,30.3085,-88.1395,0.0,8.73,2 
DISL,ioos:station:DISL:CATA:1,2011-02-05T21:00:00Z,30.3085,-88.1395,0.0,8.67,2 
DISL,ioos:station:DISL:CATA:1,2011-02-05T21:30:00Z,30.3085,-88.1395,0.0,8.39,2 
DISL,ioos:station:DISL:CATA:1,2011-02-05T22:00:00Z,30.3085,-88.1395,0.0,8.21,2 
DISL,ioos:station:DISL:CATA:1,2011-02-05T22:30:00Z,30.3085,-88.1395,0.0,8.1,2 
DISL,ioos:station:DISL:CATA:1,2011-02-05T23:00:00Z,30.3085,-88.1395,0.0,7.99,2 
DISL,ioos:station:DISL:CATA:1,2011-02-05T23:30:00Z,30.3085,-88.1395,0.0,7.91,2 
DISL,ioos:station:DISL:CATA:1,2011-02-06T00:00:00Z,30.3085,-88.1395,0.0,7.86,2 
DISL,ioos:station:DISL:CATA:1,2011-02-06T00:30:00Z,30.3085,-88.1395,0.0,7.81,2 
DISL,ioos:station:DISL:CATA:1,2011-02-06T01:00:00Z,30.3085,-88.1395,0.0,7.79,2 
DISL,ioos:station:DISL:CATA:1,2011-02-06T01:30:00Z,30.3085,-88.1395,0.0,7.76,2 
DISL,ioos:station:DISL:CATA:1,2011-02-06T02:00:00Z,30.3085,-88.1395,0.0,7.78,2 
DISL,ioos:station:DISL:CATA:1,2011-02-06T02:30:00Z,30.3085,-88.1395,0.0,7.66,2 
DISL,ioos:station:DISL:CATA:1,2011-02-06T03:00:00Z,30.3085,-88.1395,0.0,7.6,2 
DISL,ioos:station:DISL:CATA:1,2011-02-06T03:30:00Z,30.3085,-88.1395,0.0,7.56,2 
DISL,ioos:station:DISL:CATA:1,2011-02-06T04:00:00Z,30.3085,-88.1395,0.0,7.56,2 
DISL,ioos:station:DISL:CATA:1,2011-02-06T04:30:00Z,30.3085,-88.1395,0.0,7.59,2 
DISL,ioos:station:DISL:CATA:1,2011-02-06T05:00:00Z,30.3085,-88.1395,0.0,7.43,2 
DISL,ioos:station:DISL:CATA:1,2011-02-06T05:30:00Z,30.3085,-88.1395,0.0,7.3,2 
DISL,ioos:station:DISL:CATA:1,2011-02-06T06:00:00Z,30.3085,-88.1395,0.0,7.04,2 
DISL,ioos:station:DISL:CATA:1,2011-02-06T06:30:00Z,30.3085,-88.1395,0.0,6.96,2 
DISL,ioos:station:DISL:CATA:1,2011-02-06T07:00:00Z,30.3085,-88.1395,0.0,6.89,2 
DISL,ioos:station:DISL:CATA:1,2011-02-06T07:30:00Z,30.3085,-88.1395,0.0,7.03,2 
DISL,ioos:station:DISL:CATA:1,2011-02-06T08:00:00Z,30.3085,-88.1395,0.0,7.03,2 
DISL,ioos:station:DISL:CATA:1,2011-02-06T08:30:00Z,30.3085,-88.1395,0.0,7.11,2 
DISL,ioos:station:DISL:CATA:1,2011-02-06T09:00:00Z,30.3085,-88.1395,0.0,7.39,2 
DISL,ioos:station:DISL:CATA:1,2011-02-06T09:30:00Z,30.3085,-88.1395,0.0,7.37,2 
DISL,ioos:station:DISL:CATA:1,2011-02-06T10:00:00Z,30.3085,-88.1395,0.0,7.63,2 
DISL,ioos:station:DISL:CATA:1,2011-02-06T10:30:00Z,30.3085,-88.1395,0.0,8.16,2 
DISL,ioos:station:DISL:CATA:1,2011-02-06T11:00:00Z,30.3085,-88.1395,0.0,8.32,2 
DISL,ioos:station:DISL:CATA:1,2011-02-06T11:30:00Z,30.3085,-88.1395,0.0,8.54,2 
DISL,ioos:station:DISL:CATA:1,2011-02-06T12:00:00Z,30.3085,-88.1395,0.0,8.63,2 
DISL,ioos:station:DISL:CATA:1,2011-02-06T12:30:00Z,30.3085,-88.1395,0.0,8.6,2 
DISL,ioos:station:DISL:CATA:1,2011-02-06T13:00:00Z,30.3085,-88.1395,0.0,8.62,2 
DISL,ioos:station:DISL:CATA:1,2011-02-06T13:30:00Z,30.3085,-88.1395,0.0,8.5,2 
DISL,ioos:station:DISL:CATA:1,2011-02-06T14:00:00Z,30.3085,-88.1395,0.0,8.46,2 
DISL,ioos:station:DISL:CATA:1,2011-02-06T14:30:00Z,30.3085,-88.1395,0.0,8.31,2 
DISL,ioos:station:DISL:CATA:1,2011-02-06T15:00:00Z,30.3085,-88.1395,0.0,8.2,2 
DISL,ioos:station:DISL:CATA:1,2011-02-06T15:30:00Z,30.3085,-88.1395,0.0,8.16,2 
DISL,ioos:station:DISL:CATA:1,2011-02-06T16:00:00Z,30.3085,-88.1395,0.0,8.26,2 
DISL,ioos:station:DISL:CATA:1,2011-02-06T16:30:00Z,30.3085,-88.1395,0.0,8.42,2 
DISL,ioos:station:DISL:CATA:1,2011-02-06T17:00:00Z,30.3085,-88.1395,0.0,8.54,2 
DISL,ioos:station:DISL:CATA:1,2011-02-06T17:30:00Z,30.3085,-88.1395,0.0,8.59,2 
DISL,ioos:station:DISL:CATA:1,2011-02-06T18:00:00Z,30.3085,-88.1395,0.0,8.5,2 
DISL,ioos:station:DISL:CATA:1,2011-02-06T18:30:00Z,30.3085,-88.1395,0.0,9.0,2 
DISL,ioos:station:DISL:CATA:1,2011-02-06T19:00:00Z,30.3085,-88.1395,0.0,9.16,2 
DISL,ioos:station:DISL:CATA:1,2011-02-06T19:30:00Z,30.3085,-88.1395,0.0,9.52,2 
DISL,ioos:station:DISL:CATA:1,2011-02-06T20:00:00Z,30.3085,-88.1395,0.0,9.72,2 
DISL,ioos:station:DISL:CATA:1,2011-02-06T20:30:00Z,30.3085,-88.1395,0.0,9.8,2 
DISL,ioos:station:DISL:CATA:1,2011-02-06T21:00:00Z,30.3085,-88.1395,0.0,9.88,2 
DISL,ioos:station:DISL:CATA:1,2011-02-06T21:30:00Z,30.3085,-88.1395,0.0,10.04,2 
DISL,ioos:station:DISL:CATA:1,2011-02-06T22:00:00Z,30.3085,-88.1395,0.0,9.79,2 
DISL,ioos:station:DISL:CATA:1,2011-02-06T22:30:00Z,30.3085,-88.1395,0.0,9.88,2 
DISL,ioos:station:DISL:CATA:1,2011-02-06T23:00:00Z,30.3085,-88.1395,0.0,9.75,2 
DISL,ioos:station:DISL:CATA:1,2011-02-06T23:30:00Z,30.3085,-88.1395,0.0,10.52,2 
DISL,ioos:station:DISL:CATA:1,2011-02-07T00:00:00Z,30.3085,-88.1395,0.0,9.89,2 
DISL,ioos:station:DISL:CATA:1,2011-02-07T00:30:00Z,30.3085,-88.1395,0.0,9.56,2 
DISL,ioos:station:DISL:CATA:1,2011-02-07T01:00:00Z,30.3085,-88.1395,0.0,9.58,2 
DISL,ioos:station:DISL:CATA:1,2011-02-07T01:30:00Z,30.3085,-88.1395,0.0,9.4,2 
DISL,ioos:station:DISL:CATA:1,2011-02-07T02:00:00Z,30.3085,-88.1395,0.0,9.41,2 
DISL,ioos:station:DISL:CATA:1,2011-02-07T02:30:00Z,30.3085,-88.1395,0.0,9.42,2 
DISL,ioos:station:DISL:CATA:1,2011-02-07T03:00:00Z,30.3085,-88.1395,0.0,9.38,2 
DISL,ioos:station:DISL:CATA:1,2011-02-07T03:30:00Z,30.3085,-88.1395,0.0,9.36,2 
DISL,ioos:station:DISL:CATA:1,2011-02-07T04:00:00Z,30.3085,-88.1395,0.0,9.33,2 
DISL,ioos:station:DISL:CATA:1,2011-02-07T04:30:00Z,30.3085,-88.1395,0.0,9.3,2 